Meteo orario Alkatovo

Oggi, 20 Ottobre, Martedi

Tempo Temperatura Precipitazioni Vento Pressione Umidità
00:00 0°C° 0.1 mm 5 m/s 734 mm Hg 87%
01:00 0°C° 0.1 mm 5 m/s 735 mm Hg 87%
02:00 0°C° 0.1 mm 4 m/s 735 mm Hg 87%
03:00 -1°C° 0.6 mm 4 m/s 735 mm Hg 90%
04:00 -1°C° 0.6 mm 4 m/s 735 mm Hg 93%
05:00 0°C° 0.6 mm 3 m/s 735 mm Hg 96%
06:00 -1°C° 0.2 mm 4 m/s 736 mm Hg 96%
07:00 -1°C° 0.2 mm 4 m/s 736 mm Hg 96%
08:00 -1°C° 0.2 mm 4 m/s 737 mm Hg 95%
09:00 -1°C° 0.2 mm 4 m/s 737 mm Hg 93%
10:00 -1°C° 0.2 mm 5 m/s 738 mm Hg 91%
11:00 0°C° 0.2 mm 5 m/s 738 mm Hg 88%
12:00 0°C° 0.1 mm 5 m/s 739 mm Hg 85%
13:00 0°C° 0.1 mm 5 m/s 740 mm Hg 81%
14:00 0°C° 0.1 mm 5 m/s 741 mm Hg 78%
15:00 0°C° 0.1 mm 4 m/s 742 mm Hg 81%
16:00 -1°C° 0.1 mm 4 m/s 742 mm Hg 85%
17:00 0°C° 0.1 mm 3 m/s 742 mm Hg 89%
18:00 -1°C° 0 mm 3 m/s 743 mm Hg 90%
19:00 -1°C° 0 mm 2 m/s 743 mm Hg 91%
20:00 -1°C° 0 mm 2 m/s 744 mm Hg 93%
21:00 -2°C° 0 mm 2 m/s 744 mm Hg 94%
22:00 -2°C° 0 mm 2 m/s 744 mm Hg 95%
23:00 -2°C° 0 mm 2 m/s 744 mm Hg 96%

Domani, 21 Ottobre, Mercoledi

Tempo Temperatura Precipitazioni Vento Pressione Umidità
00:00 -2°C° 0 mm 2 m/s 744 mm Hg 96%
01:00 -2°C° 0 mm 2 m/s 745 mm Hg 95%
02:00 -2°C° 0 mm 2 m/s 745 mm Hg 95%
03:00 0°C° 0 mm 1 m/s 745 mm Hg 95%
04:00 0°C° 0 mm 1 m/s 745 mm Hg 95%
05:00 0°C° 0 mm 1 m/s 744 mm Hg 95%
06:00 0°C° 0 mm 1 m/s 744 mm Hg 92%
07:00 +1°C° 0 mm 1 m/s 744 mm Hg 90%
08:00 +1°C° 0 mm 1 m/s 744 mm Hg 88%
09:00 +2°C° 0 mm 1 m/s 744 mm Hg 90%
10:00 +2°C° 0 mm 1 m/s 744 mm Hg 92%
11:00 +2°C° 0 mm 2 m/s 743 mm Hg 94%
12:00 +2°C° 0.1 mm 2 m/s 743 mm Hg 95%
13:00 +3°C° 0.1 mm 1 m/s 743 mm Hg 96%
14:00 +3°C° 0.1 mm 1 m/s 743 mm Hg 97%
15:00 +3°C° 0.1 mm 1 m/s 742 mm Hg 97%
16:00 +3°C° 0.1 mm 1 m/s 742 mm Hg 98%
17:00 +3°C° 0.1 mm 1 m/s 742 mm Hg 98%
18:00 +3°C° 0 mm 1 m/s 742 mm Hg 98%
19:00 +3°C° 0 mm 1 m/s 742 mm Hg 98%
20:00 +2°C° 0 mm 2 m/s 742 mm Hg 98%
21:00 +2°C° 0 mm 2 m/s 742 mm Hg 98%
22:00 +2°C° 0 mm 2 m/s 741 mm Hg 98%
23:00 +3°C° 0 mm 2 m/s 741 mm Hg 98%

Dopodomani, 22 Ottobre, Giovedi

Tempo Temperatura Precipitazioni Vento Pressione Umidità
00:00 +3°C° 0 mm 2 m/s 741 mm Hg 98%
01:00 +3°C° 0 mm 2 m/s 741 mm Hg 98%
02:00 +3°C° 0 mm 2 m/s 741 mm Hg 98%
03:00 +3°C° 0 mm 2 m/s 741 mm Hg 98%
04:00 +3°C° 0 mm 2 m/s 741 mm Hg 97%
05:00 +3°C° 0 mm 2 m/s 740 mm Hg 97%
06:00 +2°C° 0 mm 3 m/s 740 mm Hg 97%
07:00 +2°C° 0 mm 3 m/s 740 mm Hg 96%
08:00 +3°C° 0 mm 3 m/s 739 mm Hg 95%
09:00 +3°C° 0.1 mm 3 m/s 739 mm Hg 94%
10:00 +3°C° 0.1 mm 3 m/s 738 mm Hg 93%
11:00 +4°C° 0.1 mm 4 m/s 738 mm Hg 92%
12:00 +4°C° 0.7 mm 4 m/s 737 mm Hg 93%
13:00 +4°C° 0.7 mm 4 m/s 737 mm Hg 94%
14:00 +4°C° 0.7 mm 4 m/s 736 mm Hg 95%
15:00 +5°C° 1.1 mm 4 m/s 736 mm Hg 96%
16:00 +5°C° 1.1 mm 4 m/s 735 mm Hg 96%
17:00 +5°C° 1.1 mm 4 m/s 735 mm Hg 96%
18:00 +6°C° 0.5 mm 4 m/s 735 mm Hg 95%
19:00 +8°C° 0.5 mm 4 m/s 735 mm Hg 94%
20:00 +10°C° 0.5 mm 4 m/s 735 mm Hg 93%
21:00 +10°C° 0 mm 4 m/s 735 mm Hg 93%
22:00 +10°C° 0 mm 4 m/s 735 mm Hg 93%
23:00 +10°C° 0 mm 4 m/s 735 mm Hg 93%

23 Ottobre, Venerdi

Tempo Temperatura Precipitazioni Vento Pressione Umidità
00:00 +10°C° 0 mm 4 m/s 735 mm Hg 93%
01:00 +8°C° 0 mm 4 m/s 735 mm Hg 94%
02:00 +8°C° 0 mm 4 m/s 735 mm Hg 95%
03:00 +10°C° 0 mm 4 m/s 735 mm Hg 94%
04:00 +10°C° 0 mm 4 m/s 735 mm Hg 93%
05:00 +11°C° 0 mm 4 m/s 735 mm Hg 93%
06:00 +11°C° 0 mm 4 m/s 735 mm Hg 93%
07:00 +11°C° 0 mm 4 m/s 735 mm Hg 92%
08:00 +11°C° 0 mm 4 m/s 734 mm Hg 92%
09:00 +10°C° 0.5 mm 5 m/s 734 mm Hg 92%
10:00 +10°C° 0.5 mm 5 m/s 733 mm Hg 92%
11:00 +10°C° 0.5 mm 5 m/s 733 mm Hg 92%
12:00 +10°C° 0.5 mm 5 m/s 732 mm Hg 91%
13:00 +10°C° 0.5 mm 5 m/s 732 mm Hg 90%
14:00 +10°C° 0.5 mm 6 m/s 731 mm Hg 89%
15:00 +10°C° 0.9 mm 5 m/s 731 mm Hg 90%
16:00 +10°C° 0.9 mm 5 m/s 731 mm Hg 91%
17:00 +10°C° 0.9 mm 5 m/s 731 mm Hg 93%
18:00 +10°C° 1 mm 5 m/s 731 mm Hg 91%
19:00 +10°C° 1 mm 5 m/s 731 mm Hg 90%
20:00 +10°C° 1 mm 4 m/s 731 mm Hg 88%
21:00 +8°C° 0.1 mm 4 m/s 731 mm Hg 88%
22:00 +8°C° 0.1 mm 4 m/s 732 mm Hg 88%
23:00 +8°C° 0.1 mm 3 m/s 732 mm Hg 89%

24 Ottobre, Sabato

Tempo Temperatura Precipitazioni Vento Pressione Umidità
00:00 +7°C° 0 mm 3 m/s 732 mm Hg 87%
01:00 +6°C° 0 mm 4 m/s 732 mm Hg 86%
02:00 +5°C° 0 mm 4 m/s 732 mm Hg 85%
03:00 +5°C° 0 mm 4 m/s 733 mm Hg 86%
04:00 +5°C° 0 mm 4 m/s 733 mm Hg 87%
05:00 +5°C° 0 mm 4 m/s 733 mm Hg 88%
06:00 +5°C° 0 mm 4 m/s 734 mm Hg 87%
07:00 +5°C° 0 mm 4 m/s 734 mm Hg 86%
08:00 +5°C° 0 mm 4 m/s 735 mm Hg 85%
09:00 +5°C° 0 mm 4 m/s 735 mm Hg 82%
10:00 +5°C° 0 mm 4 m/s 736 mm Hg 79%
11:00 +5°C° 0 mm 4 m/s 736 mm Hg 75%
12:00 +5°C° 0 mm 3 m/s 736 mm Hg 75%
13:00 +5°C° 0 mm 3 m/s 737 mm Hg 74%
14:00 +5°C° 0 mm 3 m/s 737 mm Hg 73%
15:00 +5°C° 0 mm 2 m/s 737 mm Hg 78%
16:00 +4°C° 0 mm 2 m/s 737 mm Hg 83%
17:00 +4°C° 0 mm 1 m/s 737 mm Hg 88%
18:00 +4°C° 0 mm 1 m/s 738 mm Hg 90%
19:00 +3°C° 0 mm 0 m/s 738 mm Hg 91%
20:00 +2°C° 0 mm 0 m/s 738 mm Hg 93%
21:00 +2°C° 0 mm 0 m/s 739 mm Hg 93%
22:00 +2°C° 0 mm 0 m/s 739 mm Hg 93%
23:00 +2°C° 0 mm 0 m/s 739 mm Hg 93%

25 Ottobre, Domenica

Tempo Temperatura Precipitazioni Vento Pressione Umidità
00:00 +2°C° 0 mm 0 m/s 739 mm Hg 94%
01:00 +2°C° 0 mm 0 m/s 739 mm Hg 94%
02:00 +2°C° 0 mm 0 m/s 739 mm Hg 94%
03:00 +2°C° 0 mm 0 m/s 739 mm Hg 94%
04:00 +3°C° 0 mm 0 m/s 740 mm Hg 93%
05:00 +3°C° 0 mm 0 m/s 740 mm Hg 93%
06:00 +3°C° 0 mm 0 m/s 740 mm Hg 93%
07:00 +3°C° 0 mm 0 m/s 740 mm Hg 92%
08:00 +4°C° 0 mm 0 m/s 740 mm Hg 92%
09:00 +5°C° 0 mm 0 m/s 741 mm Hg 89%
10:00 +6°C° 0 mm 0 m/s 741 mm Hg 86%
11:00 +8°C° 0 mm 1 m/s 741 mm Hg 83%
12:00 +8°C° 0 mm 1 m/s 741 mm Hg 82%
13:00 +8°C° 0 mm 1 m/s 741 mm Hg 82%
14:00 +8°C° 0 mm 1 m/s 742 mm Hg 82%
15:00 +7°C° 0 mm 1 m/s 742 mm Hg 83%
16:00 +7°C° 0 mm 1 m/s 742 mm Hg 85%
17:00 +6°C° 0 mm 1 m/s 742 mm Hg 87%
18:00 +6°C° 0 mm 1 m/s 742 mm Hg 89%
19:00 +5°C° 0 mm 1 m/s 743 mm Hg 91%
20:00 +4°C° 0 mm 1 m/s 743 mm Hg 93%
21:00 +4°C° 0 mm 1 m/s 743 mm Hg 93%
22:00 +4°C° 0 mm 1 m/s 743 mm Hg 93%
23:00 +4°C° 0 mm 1 m/s 744 mm Hg 93%

26 Ottobre, Lunedi

Tempo Temperatura Precipitazioni Vento Pressione Umidità
00:00 +4°C° 0 mm 1 m/s 744 mm Hg 93%
01:00 +4°C° 0 mm 1 m/s 744 mm Hg 93%
02:00 +4°C° 0 mm 1 m/s 744 mm Hg 92%
03:00 +4°C° 0 mm 1 m/s 745 mm Hg 92%
04:00 +4°C° 0 mm 1 m/s 745 mm Hg 93%
05:00 +5°C° 0 mm 1 m/s 745 mm Hg 93%
06:00 +5°C° 0 mm 1 m/s 745 mm Hg 93%
07:00 +5°C° 0 mm 1 m/s 746 mm Hg 94%
08:00 +5°C° 0 mm 1 m/s 746 mm Hg 94%
09:00 +6°C° 0 mm 1 m/s 747 mm Hg 92%
10:00 +6°C° 0 mm 0 m/s 747 mm Hg 89%
11:00 +7°C° 0 mm 0 m/s 747 mm Hg 86%
12:00 +7°C° 0 mm 0 m/s 748 mm Hg 86%
13:00 +7°C° 0 mm 0 m/s 748 mm Hg 85%
14:00 +8°C° 0 mm 0 m/s 748 mm Hg 85%
15:00 +7°C° 0 mm 0 m/s 748 mm Hg 86%
16:00 +7°C° 0 mm 0 m/s 748 mm Hg 88%
17:00 +7°C° 0 mm 1 m/s 748 mm Hg 89%
18:00 +7°C° 0 mm 1 m/s 749 mm Hg 89%
19:00 +7°C° 0 mm 1 m/s 749 mm Hg 89%
20:00 +6°C° 0 mm 1 m/s 750 mm Hg 89%
21:00 +6°C° 0 mm 1 m/s 750 mm Hg 91%
22:00 +5°C° 0 mm 1 m/s 750 mm Hg 93%
23:00 +4°C° 0 mm 1 m/s 750 mm Hg 95%
Mostrare altro

Abbiamo bisogno del tuo consenso

Meteoprog e i nostri fornitori di servizi possono memorizzare e accedere a dati personali come cookie, identificatori di dispositivi o altre tecnologie simili sul tuo dispositivo e possono elaborare tali dati per personalizzare i contenuti e gli annunci, nonché fornire funzionalità dei social media e analizzarne il traffico.

  • Archiviare e/o accedere alle informazioni sul tuo dispositivo

    Cookie, identificatori di dispositivi o altre informazioni possono essere memorizzati o resi accessibili sul tuo dispositivo per le finalità sopra indicate.

  • Annunci e contenuti personalizzati, misurazione di annunci e contenuti, approfondimenti sul pubblico e sviluppo di prodotti

    Gli annunci e i contenuti possono essere personalizzati in base a un profilo. È possibile aggiungere più dati per personalizzare meglio annunci e contenuti. È possibile misurare il rendimento degli annunci e dei contenuti. È possibile ricavare informazioni sul pubblico che ha visto gli annunci e i contenuti. Tali dati possono essere utilizzati per sviluppare o migliorare l'esperienza, i sistemi e il software dell'utente.

Cliccando su “Accetto”, acconsenti all'uso di cookie, identificatori di dispositivo, web beacon o altre tecnologie simili. Puoi modificare le impostazioni nel browser del tuo dispositivo.

Per determinati scopi, è possibile fare affidamento su interessi legali, piuttosto che sul consenso. Puoi approfondire questo argomento consultando la nostra Informativa sulla privacy e sui cookie.